{"data":{"norad_id":66353,"epoch":"2026-05-24T17:38:20.180256Z","epoch_age_seconds":91964,"freshness":"FRESH","line1":"1 66353U 25254F   26144.73495579  .00015938  00000+0  54887-3 0  9997","line2":"2 66353  53.1595 238.8670 0001098  65.9998 294.1118 15.30211798 30625","mean_motion":15.30211798,"eccentricity":0.0001098,"inclination_deg":53.1595,"raan_deg":238.867,"arg_perigee_deg":65.9998,"mean_anomaly_deg":294.1118,"bstar":0.00054887,"rev_number":3062,"period_min":94.104620150106,"perigee_km":474.42734875491,"apogee_km":475.93233713362,"semimajor_km":6853.3168429443,"source":"CELESTRAK","updated_at":"2026-05-25T13:38:21.174376Z"}}